Location: Newark
(22.3060°N, 114.2134°E)
Time: 07:38:09
(UTC+00:00)

Explorer 11/Cluster Stage 4 - Pass Details

Date: 02 August 2021
Orbit: 467 x 1256 km, 28.8° (Epoch: 24 September)

Event Time Altitude Azimuth Distance (km) Brightness Sun altitude
Rises 23:00:59 0° 239° (WSW) 3,616 9.4 13.6°
Reaches altitude 10° 23:03:28 10° 236° (SW) 2,779 8.9 14.2°
Maximum altitude 23:10:24 67° 155° (SSE) 1,228 7.9 15.7°
Drops below altitude 10° 23:18:26 10° 74° (ENE) 3,198 12.3 17.5°
Sets 23:21:27 0° 72° (ENE) 4,191 12.0 18.2°
